When you browse on this site, cookies collect data to enhance your experience and personalize the content and advertising you see.
Visit our Privacy Policy to learn more. By continuing to use the site, you agree to this use of cookies and data.
  • In Hungary
  • List of Countries
  • For 7 days
  • Water Temperature
  • Satellite Maps
  • Weather Map
  • News
  • Weather Widgets
  • user-avatar
    Login

    Hourly Weather Streleckoe

    Today, 22 May, Wednesday

    Time Temperature Precipitation Wind Pressure Humidity
    00:00 +18°C° 0.8 mm 1 mps 752 mmHg 91%
    01:00 +16°C° 0.8 mm 1 mps 752 mmHg 92%
    02:00 +16°C° 0 mm 1 mps 752 mmHg 93%
    03:00 +16°C° 1.3 mm 1 mps 752 mmHg 94%
    04:00 +16°C° 1.3 mm 1 mps 751 mmHg 94%
    05:00 +16°C° 1.3 mm 1 mps 751 mmHg 94%
    06:00 +18°C° 0.3 mm 1 mps 751 mmHg 91%
    07:00 +20°C° 0.3 mm 1 mps 751 mmHg 87%
    08:00 +21°C° 0 mm 1 mps 751 mmHg 80%
    09:00 +22°C° 2 mm 1 mps 751 mmHg 77%
    10:00 +23°C° 2 mm 2 mps 751 mmHg 75%
    11:00 +24°C° 2 mm 2 mps 750 mmHg 73%
    12:00 +24°C° 0.8 mm 2 mps 750 mmHg 69%
    13:00 +24°C° 0.8 mm 2 mps 750 mmHg 66%
    14:00 +25°C° 0.8 mm 2 mps 750 mmHg 62%
    15:00 +25°C° 0 mm 2 mps 750 mmHg 61%
    16:00 +25°C° 0 mm 1 mps 750 mmHg 60%
    17:00 +25°C° 0 mm 1 mps 749 mmHg 58%
    18:00 +24°C° 0 mm 1 mps 749 mmHg 64%
    19:00 +20°C° 0 mm 0 mps 749 mmHg 70%
    20:00 +19°C° 0 mm 0 mps 749 mmHg 76%
    21:00 +18°C° 0.1 mm 0 mps 749 mmHg 80%
    22:00 +17°C° 0.1 mm 0 mps 749 mmHg 83%
    23:00 +16°C° 0.1 mm 0 mps 749 mmHg 87%

    Tomorrow, 23 May, Thursday

    Time Temperature Precipitation Wind Pressure Humidity
    00:00 +16°C° 0 mm 1 mps 749 mmHg 88%
    01:00 +16°C° 0 mm 1 mps 749 mmHg 89%
    02:00 +15°C° 0 mm 1 mps 749 mmHg 91%
    03:00 +15°C° 0 mm 1 mps 749 mmHg 90%
    04:00 +15°C° 0 mm 1 mps 749 mmHg 90%
    05:00 +15°C° 0 mm 1 mps 748 mmHg 90%
    06:00 +17°C° 0 mm 2 mps 748 mmHg 84%
    07:00 +19°C° 0 mm 2 mps 748 mmHg 78%
    08:00 +20°C° 0 mm 2 mps 749 mmHg 71%
    09:00 +21°C° 0 mm 2 mps 749 mmHg 66%
    10:00 +24°C° 0 mm 2 mps 749 mmHg 60%
    11:00 +25°C° 0 mm 2 mps 749 mmHg 54%
    12:00 +25°C° 0 mm 2 mps 749 mmHg 52%
    13:00 +26°C° 0 mm 2 mps 749 mmHg 51%
    14:00 +26°C° 0 mm 2 mps 749 mmHg 49%
    15:00 +26°C° 0.1 mm 2 mps 749 mmHg 54%
    16:00 +25°C° 0.1 mm 3 mps 749 mmHg 59%
    17:00 +24°C° 0.1 mm 3 mps 749 mmHg 64%
    18:00 +22°C° 0.2 mm 3 mps 749 mmHg 73%
    19:00 +20°C° 0.2 mm 2 mps 749 mmHg 81%
    20:00 +18°C° 0.2 mm 2 mps 749 mmHg 89%
    21:00 +17°C° 0 mm 2 mps 750 mmHg 90%
    22:00 +16°C° 0 mm 3 mps 750 mmHg 91%
    23:00 +14°C° 0 mm 3 mps 751 mmHg 91%

    Day after tomorrow, 24 May, Friday

    Time Temperature Precipitation Wind Pressure Humidity
    00:00 +14°C° 0 mm 2 mps 751 mmHg 92%
    01:00 +13°C° 0 mm 2 mps 751 mmHg 93%
    02:00 +12°C° 0 mm 2 mps 751 mmHg 94%
    03:00 +12°C° 0 mm 2 mps 751 mmHg 94%
    04:00 +12°C° 0 mm 2 mps 751 mmHg 94%
    05:00 +13°C° 0 mm 2 mps 751 mmHg 94%
    06:00 +14°C° 0 mm 2 mps 751 mmHg 91%
    07:00 +15°C° 0 mm 2 mps 751 mmHg 88%
    08:00 +16°C° 0 mm 2 mps 751 mmHg 85%
    09:00 +18°C° 0 mm 3 mps 751 mmHg 80%
    10:00 +19°C° 0 mm 3 mps 751 mmHg 75%
    11:00 +21°C° 0 mm 3 mps 751 mmHg 69%
    12:00 +21°C° 1.1 mm 3 mps 750 mmHg 72%
    13:00 +21°C° 1.1 mm 3 mps 750 mmHg 74%
    14:00 +23°C° 1.1 mm 2 mps 750 mmHg 76%
    15:00 +21°C° 1.4 mm 2 mps 749 mmHg 77%
    16:00 +21°C° 1.4 mm 2 mps 749 mmHg 78%
    17:00 +21°C° 1.4 mm 2 mps 749 mmHg 80%
    18:00 +20°C° 1.1 mm 2 mps 749 mmHg 84%
    19:00 +19°C° 1.1 mm 2 mps 749 mmHg 88%
    20:00 +17°C° 1.1 mm 2 mps 749 mmHg 92%
    21:00 +16°C° 0 mm 2 mps 749 mmHg 93%
    22:00 +15°C° 0 mm 2 mps 749 mmHg 94%
    23:00 +14°C° 0 mm 2 mps 749 mmHg 95%

    25 May, Saturday

    Time Temperature Precipitation Wind Pressure Humidity
    00:00 +13°C° 0 mm 2 mps 749 mmHg 96%
    01:00 +13°C° 0 mm 2 mps 749 mmHg 96%
    02:00 +12°C° 0 mm 2 mps 749 mmHg 96%
    03:00 +12°C° 0 mm 1 mps 749 mmHg 96%
    04:00 +12°C° 0 mm 1 mps 749 mmHg 96%
    05:00 +12°C° 0 mm 1 mps 749 mmHg 95%
    06:00 +13°C° 0 mm 1 mps 749 mmHg 90%
    07:00 +14°C° 0 mm 1 mps 749 mmHg 84%
    08:00 +16°C° 0 mm 1 mps 748 mmHg 78%
    09:00 +17°C° 0 mm 2 mps 748 mmHg 70%
    10:00 +18°C° 0 mm 2 mps 748 mmHg 62%
    11:00 +20°C° 0 mm 3 mps 747 mmHg 54%
    12:00 +20°C° 0 mm 3 mps 747 mmHg 51%
    13:00 +21°C° 0 mm 3 mps 747 mmHg 49%
    14:00 +21°C° 0 mm 4 mps 746 mmHg 47%
    15:00 +19°C° 0.6 mm 4 mps 746 mmHg 58%
    16:00 +18°C° 0.6 mm 4 mps 746 mmHg 69%
    17:00 +15°C° 0.6 mm 4 mps 745 mmHg 80%
    18:00 +14°C° 0.2 mm 4 mps 745 mmHg 83%
    19:00 +13°C° 0.2 mm 3 mps 745 mmHg 86%
    20:00 +13°C° 0.2 mm 2 mps 745 mmHg 89%
    21:00 +11°C° 0 mm 3 mps 746 mmHg 90%
    22:00 +10°C° 0 mm 3 mps 746 mmHg 92%
    23:00 +9°C° 0 mm 3 mps 746 mmHg 94%

    26 May, Sunday

    Time Temperature Precipitation Wind Pressure Humidity
    00:00 +8°C° 0 mm 3 mps 746 mmHg 95%
    01:00 +8°C° 0 mm 3 mps 746 mmHg 96%
    02:00 +7°C° 0 mm 3 mps 746 mmHg 96%
    03:00 +8°C° 0 mm 3 mps 746 mmHg 95%
    04:00 +8°C° 0 mm 3 mps 746 mmHg 93%
    05:00 +9°C° 0 mm 3 mps 746 mmHg 92%
    06:00 +9°C° 0 mm 3 mps 746 mmHg 88%
    07:00 +10°C° 0 mm 3 mps 746 mmHg 84%
    08:00 +11°C° 0 mm 3 mps 746 mmHg 81%
    09:00 +11°C° 0 mm 3 mps 746 mmHg 79%
    10:00 +11°C° 0 mm 4 mps 746 mmHg 78%
    11:00 +12°C° 0 mm 4 mps 746 mmHg 77%
    12:00 +12°C° 0 mm 4 mps 746 mmHg 75%
    13:00 +12°C° 0 mm 4 mps 746 mmHg 74%
    14:00 +12°C° 0 mm 4 mps 746 mmHg 72%
    15:00 +12°C° 0.1 mm 4 mps 745 mmHg 74%
    16:00 +12°C° 0.1 mm 4 mps 745 mmHg 77%
    17:00 +12°C° 0.1 mm 3 mps 745 mmHg 79%
    18:00 +12°C° 0.4 mm 3 mps 745 mmHg 83%
    19:00 +11°C° 0.4 mm 3 mps 745 mmHg 88%
    20:00 +10°C° 0.4 mm 3 mps 744 mmHg 92%
    21:00 +9°C° 0.3 mm 3 mps 744 mmHg 93%
    22:00 +9°C° 0.3 mm 3 mps 744 mmHg 94%
    23:00 +8°C° 0.3 mm 2 mps 744 mmHg 96%

    27 May, Monday

    Time Temperature Precipitation Wind Pressure Humidity
    00:00 +7°C° 0 mm 2 mps 744 mmHg 96%
    01:00 +6°C° 0 mm 2 mps 744 mmHg 96%
    02:00 +6°C° 0 mm 2 mps 744 mmHg 96%
    03:00 +6°C° 0 mm 2 mps 744 mmHg 96%
    04:00 +6°C° 0 mm 2 mps 744 mmHg 96%
    05:00 +6°C° 0 mm 2 mps 744 mmHg 95%
    06:00 +7°C° 0.1 mm 2 mps 744 mmHg 92%
    07:00 +8°C° 0.1 mm 2 mps 744 mmHg 88%
    08:00 +9°C° 0.1 mm 2 mps 744 mmHg 84%
    09:00 +10°C° 0.2 mm 2 mps 744 mmHg 80%
    10:00 +12°C° 0.2 mm 2 mps 745 mmHg 76%
    11:00 +12°C° 0.2 mm 3 mps 745 mmHg 72%
    12:00 +13°C° 0.2 mm 3 mps 745 mmHg 66%
    13:00 +14°C° 0.2 mm 4 mps 746 mmHg 60%
    14:00 +15°C° 0.2 mm 4 mps 746 mmHg 54%
    15:00 +15°C° 0 mm 4 mps 747 mmHg 55%
    16:00 +15°C° 0 mm 4 mps 747 mmHg 57%
    17:00 +14°C° 0 mm 4 mps 748 mmHg 59%
    18:00 +13°C° 0 mm 3 mps 748 mmHg 66%
    19:00 +12°C° 0 mm 3 mps 749 mmHg 73%
    20:00 +12°C° 0 mm 2 mps 749 mmHg 80%
    21:00 +10°C° 0 mm 2 mps 750 mmHg 84%
    22:00 +8°C° 0 mm 2 mps 750 mmHg 87%
    23:00 +7°C° 0 mm 2 mps 751 mmHg 90%
    Show more